Wind_Speed
8 5 2 1 2 2 3 4 11 10 8 7 10 9 8 7 6 2 1 2 4 10 14 9 7 4 5 12 10 7 4 4 3 3 5 6 8 10 10 9 9 10 10 10 8 8 9 7 7
7 4 0 3 3 8 8 6 7 10 9 7 7 9 8 7 4 4 2 1 4 6 11 8 9 6 6 7 7 5 3 2 3 4 5 7 10 9 11 10 10 10 10 9 8 10 7 7 8
2 1 1 4 6 8 7 5 5 9 10 5 5 8 9 6 4 6 2 2 2 2 8 6 5 6 10 8 5 3 2 2 4 4 5 8 8 10 11 12 11 10 9 8 9 7 6 7 7
2 2 3 5 6 5 5 2 3 6 8 7 4 6 7 4 3 4 1 1 3 6 3 6 8 5 6 8 4 3 1 2 2 2 4 5 9 11 12 11 11 10 10 7 9 8 8 8 9
4 4 5 7 5 7 1 5 6 10 3 3 3 5 5 3 3 3 1 2 4 5 5 9 6 6 7 5 3 3 1 1 2 3 4 4 9 11 12 10 10 10 9 8 8 8 11 11 11
5 4 3 6 7 6 4 2 8 8 4 3 3 5 5 2 2 1 3 1 1 3 7 5 5 5 4 4 2 0 2 3 4 3 3 5 9 10 11 9 11 9 9 8 8 9 12 11 12
6 3 6 6 4 5 8 6 9 9 6 2 3 4 6 2 2 1 2 1 1 3 6 6 2 3 8 7 4 1 4 5 7 5 3 5 8 8 10 8 9 9 8 6 8 6 10 13 13
5 6 7 9 3 5 5 4 4 11 6 4 3 2 6 3 1 2 1 2 2 2 4 4 1 3 7 12 6 2 4 3 6 6 7 5 5 6 7 9 8 9 7 6 7 8 11 11 12
8 8 9 5 3 5 5 3 2 4 5 1 2 1 3 4 1 1 1 2 3 3 5 5 3 1 4 14 6 3 3 4 5 5 7 6 3 4 6 10 6 7 5 4 10 7 13 9 12
7 9 6 4 4 4 3 3 2 3 5 2 2 2 1 2 2 1 2 4 3 6 6 7 6 5 6 8 5 2 4 4 6 8 6 8 2 1 9 8 5 8 8 6 11 5 13 14 16
9 9 7 3 2 5 6 5 2 4 9 5 4 3 0 0 2 2 3 5 5 7 7 6 6 7 9 9 6 3 4 3 3 7 6 5 4 3 10 5 7 10 8 8 8 16 15 15 16
5 9 5 1 3 4 4 6 5 4 5 6 7 2 3 3 4 4 3 6 6 8 7 3 4 6 11 9 5 4 5 3 4 3 3 4 7 7 7 3 8 10 5 9 16 16 16 15 13
2 5 5 1 3 5 5 3 4 5 4 2 1 2 4 6 4 7 6 5 6 8 7 6 8 7 12 9 7 6 6 5 4 4 7 8 8 8 7 4 9 8 11 12 13 13 14 13 12
6 4 4 0 4 3 4 4 3 2 2 4 5 6 5 7 6 8 8 6 5 7 6 7 8 10 13 11 8 6 7 6 4 2 7 9 8 7 7 6 6 8 10 2 15 14 14 13 11
3 4 3 3 8 6 4 2 1 2 2 2 4 6 3 6 5 6 6 6 5 8 8 8 9 10 11 11 10 8 6 9 9 3 2 11 10 7 6 6 4 4 12 14 17 11 10 12 12
4 5 3 4 6 8 6 4 2 3 7 5 3 3 3 1 4 6 7 8 7 7 9 10 10 12 11 11 10 8 6 7 5 7 3 9 10 8 5 5 4 9 10 9 9 10 15 11 12
2 2 4 7 6 5 5 5 2 3 5 3 2 3 0 2 3 5 7 8 9 8 11 11 10 12 12 11 10 8 4 4 5 14 9 8 11 8 6 7 4 6 9 11 9 13 12 13 16
6 6 6 9 8 3 4 3 4 2 0 3 3 4 6 5 6 9 7 6 8 11 11 14 12 13 12 12 10 9 8 3 5 6 8 9 7 11 8 8 8 8 7 7 6 6 13 14 12
9 7 6 7 6 4 3 5 5 0 2 3 3 5 5 7 9 9 10 9 8 10 13 14 13 12 11 12 12 12 11 6 6 10 12 9 10 12 11 9 9 9 7 6 3 10 11 13 11
10 8 8 10 8 5 3 1 2 4 6 6 1 5 6 7 7 6 9 11 12 12 12 15 16 15 13 13 13 13 13 12 12 11 13 12 10 10 11 13 12 10 9 9 4 9 7 8 8
11 11 11 9 9 7 4 2 4 4 1 6 5 2 4 4 6 6 6 3 9 14 12 15 18 17 16 13 12 10 13 15 15 13 17 16 14 10 12 12 14 13 14 12 9 7 6 7 7
9 14 12 12 10 9 7 1 6 3 5 1 4 4 5 6 7 8 7 7 7 13 16 16 17 19 19 16 12 10 11 13 15 16 17 20 21 14 13 13 14 17 14 11 10 10 12 11 12
10 12 15 13 11 8 10 5 2 2 4 3 5 7 8 5 6 8 7 9 10 8 15 19 18 19 20 19 14 12 13 14 11 12 13 16 18 14 13 13 15 19 19 16 13 12 11 12 12
12 15 15 15 14 9 13 7 6 3 6 8 2 7 9 8 10 6 6 4 9 9 13 17 16 17 20 20 17 15 14 17 17 13 12 15 16 14 13 14 16 17 19 19 15 12 12 10 10
14 14 15 13 11 11 15 9 7 6 8 10 9 5 7 8 10 12 10 12 10 10 14 15 16 16 18 19 17 16 16 15 18 17 16 16 15 15 17 16 17 18 19 18 17 16 15 12 12
15 17 14 13 11 11 14 10 6 12 13 15 14 6 5 6 8 13 13 11 11 10 15 16 14 14 17 19 17 15 16 14 15 15 17 17 17 16 16 15 16 16 18 19 19 19 18 16 15
17 16 16 18 13 12 12 12 10 12 11 14 14 7 6 5 9 9 13 10 13 12 14 16 15 14 14 15 14 14 14 16 16 15 17 17 16 16 16 16 16 17 18 17 16 17 19 19 17
24 21 19 21 21 17 12 14 15 15 16 19 18 11 5 5 6 6 9 8 13 16 15 14 15 17 17 16 15 15 16 16 16 16 17 18 18 18 17 17 16 16 17 16 16 15 16 21 20
25 27 26 23 24 25 23 17 14 17 19 18 17 15 14 12 11 4 4 5 11 13 14 15 13 18 18 21 20 18 18 17 17 18 18 19 20 19 18 18 18 18 17 16 16 15 13 15 16
26 30 30 32 31 30 29 22 22 18 21 22 24 17 20 19 12 8 10 8 8 12 14 13 13 18 19 18 20 21 19 19 20 21 20 20 21 21 21 20 19 18 18 18 17 17 14 16 16
Wind_Direction
93 80 63 327 272 348 23 30 37 29 43 39 66 59 44 21 15 24 109 270 306 260 241 225 240 210 124 102 113 115 109 124 89 81 58 54 46 36 34 31 37 50 49 49 36 40 57 59 59
88 73 58 28 282 291 20 53 14 3 38 43 68 69 47 26 4 51 59 53 352 11 242 221 244 184 167 118 110 110 105 106 72 42 44 44 46 36 37 35 42 57 61 53 36 38 51 63 68
90 100 60 338 357 10 324 32 6 17 358 19 74 77 55 29 34 54 27 78 342 2 190 201 232 137 129 129 128 107 146 97 58 20 25 45 46 37 42 44 55 66 71 60 45 46 41 71 91
186 236 261 290 308 333 10 185 28 353 4 5 29 77 68 42 47 62 41 9 32 9 232 193 230 156 163 146 124 83 113 64 60 11 22 29 38 47 47 52 67 73 70 61 47 39 46 66 75
237 268 301 315 314 329 41 212 163 342 318 337 11 85 89 65 54 62 300 1 358 13 196 206 198 219 173 147 104 49 46 316 340 338 358 10 24 49 50 60 68 68 68 62 62 64 67 72 79
259 264 297 330 322 318 328 242 239 306 237 9 10 67 89 58 68 49 299 8 7 62 103 186 196 201 158 184 133 162 321 294 296 297 312 358 31 50 53 60 67 65 67 61 62 66 64 70 101
278 316 354 323 335 351 323 303 199 247 201 44 22 56 86 65 32 351 295 313 263 128 137 147 167 222 206 199 200 237 276 296 259 265 285 48 37 47 57 62 73 68 58 66 71 46 86 81 92
302 305 333 329 15 31 347 321 226 183 170 67 16 26 85 90 8 326 346 245 220 142 159 153 71 3 261 209 210 188 17 309 288 305 343 10 38 51 56 65 68 52 49 66 69 69 97 86 93
292 314 323 307 356 26 31 6 342 171 180 241 308 14 74 90 85 310 195 213 212 172 179 179 156 159 31 161 184 176 357 249 313 314 321 306 20 54 74 77 76 54 44 34 76 86 104 101 106
307 297 322 354 29 32 19 37 66 221 218 155 152 94 53 91 119 159 174 193 193 178 165 168 162 160 148 149 187 176 227 243 269 252 266 283 94 79 76 91 69 46 25 53 49 61 113 109 99
278 272 306 333 11 66 24 9 61 176 186 164 114 80 339 212 201 203 182 184 182 179 182 181 182 180 186 186 210 221 212 221 199 290 266 237 125 92 83 84 66 52 62 85 60 129 122 111 105
292 279 257 84 59 71 46 22 19 103 175 172 204 255 282 229 203 213 189 202 195 189 190 218 219 192 181 192 189 206 231 250 264 263 262 139 137 117 99 87 64 57 1 96 127 136 131 123 109
263 233 254 72 41 52 57 36 29 31 50 7 25 310 291 223 222 212 204 203 199 199 190 162 144 159 179 203 207 228 267 289 327 244 184 143 137 130 118 92 59 38 28 115 142 139 126 116 106
189 197 262 306 297 32 30 7 29 67 54 28 2 344 252 240 219 217 212 190 202 203 194 191 202 188 183 202 220 233 266 282 291 289 156 139 165 141 132 112 71 37 46 180 147 143 138 132 117
309 67 33 290 289 312 323 8 302 266 263 215 297 344 297 232 216 234 230 209 215 202 200 191 192 184 198 204 223 241 256 292 272 232 186 176 162 165 150 136 95 43 66 119 144 123 136 149 123
355 48 358 330 318 315 323 324 337 270 251 272 217 331 55 326 208 220 223 227 216 209 203 190 204 208 209 213 222 235 258 289 256 192 167 181 183 176 167 132 101 55 65 100 165 130 122 135 150
287 309 316 314 309 295 313 326 22 286 250 236 234 238 204 149 211 230 222 217 217 210 202 191 201 211 208 210 222 236 282 301 236 214 198 201 196 190 188 156 134 80 73 65 121 158 147 137 146
316 324 329 309 299 333 315 323 309 183 140 176 219 189 200 203 212 216 204 223 215 214 207 201 198 205 207 200 220 243 255 229 187 205 201 226 206 207 213 179 167 131 103 62 72 172 182 166 152
306 309 321 302 322 349 0 320 289 316 65 83 202 240 249 201 229 245 236 230 245 221 214 212 210 222 220 235 237 239 247 250 247 211 205 207 212 216 220 217 190 160 149 118 35 124 162 167 158
302 308 297 285 302 320 350 322 329 44 33 20 21 162 252 247 223 254 252 225 228 229 221 218 223 228 229 224 238 240 246 251 242 233 203 202 207 226 222 223 205 184 158 157 149 88 96 164 164
315 298 290 295 301 312 351 107 156 137 94 59 11 292 224 250 235 226 270 251 232 217 222 222 223 226 226 224 235 238 242 240 233 217 205 207 214 224 221 213 210 194 168 172 171 165 157 158 154
302 293 290 287 288 302 320 73 177 181 181 15 350 338 280 258 250 254 252 286 282 238 226 230 223 225 225 231 227 237 245 244 238 229 210 207 218 225 216 204 205 206 201 192 184 184 172 178 176
271 277 275 281 289 294 285 302 284 178 210 254 316 345 16 340 290 248 250 247 267 262 229 222 227 224 224 227 226 231 233 233 241 239 227 213 211 215 213 204 205 209 208 209 203 187 190 185 171
262 277 287 292 289 291 279 298 247 231 264 259 340 10 355 4 350 302 277 248 267 267 229 211 222 222 221 222 225 236 240 244 246 248 234 205 204 219 217 208 213 215 213 211 215 208 200 190 194
275 290 299 299 295 281 283 294 200 240 264 293 271 338 349 335 329 331 298 268 254 261 230 225 222 221 221 226 229 241 247 241 246 242 231 218 220 218 220 211 203 211 214 215 223 225 222 218 208
270 284 291 298 293 274 272 273 229 257 267 281 281 290 309 334 311 316 312 283 260 250 219 215 222 226 229 228 226 231 240 237 242 241 233 221 218 206 216 209 209 210 214 218 230 236 236 229 229
265 267 269 287 285 274 271 267 231 238 250 260 279 289 317 336 323 326 331 283 271 244 227 222 225 227 226 228 225 226 231 232 231 235 233 220 213 209 210 214 213 215 221 226 233 241 242 245 241
273 276 271 279 284 278 277 272 267 237 231 257 280 279 277 323 319 1 17 338 295 275 250 243 236 236 233 231 231 232 233 233 235 232 229 221 216 217 221 220 222 226 231 231 233 239 228 230 235
261 276 279 278 273 283 291 290 279 259 249 248 272 279 279 281 281 295 345 338 295 294 283 259 262 259 245 235 228 230 235 230 231 233 229 222 222 225 226 228 227 228 235 232 235 246 231 240 243
254 266 273 280 280 281 290 292 288 281 261 272 268 270 283 284 279 270 304 276 283 278 287 286 253 251 238 241 233 231 233 236 241 233 231 225 223 227 231 232 232 233 235 235 235 234 245 242 245
Height
5896 5896 5897 5897 5899 5898 5898 5898 5898 5898 5897 5896 5893 5893 5894 5893 5894 5895 5894 5893 5892 5891 5893 5895 5895 5896 5896 5896 5898 5899 5899 5901 5901 5901 5901 5902 5903 5903 5902 5901 5901 5900 5900 5898 5896 5896 5897 5896 5895
5897 5897 5898 5897 5897 5897 5899 5899 5897 5897 5898 5897 5895 5893 5893 5894 5894 5893 5893 5893 5892 5890 5891 5893 5892 5895 5897 5898 5899 5899 5900 5901 5901 5901 5902 5904 5904 5904 5904 5903 5903 5901 5901 5898 5899 5899 5898 5898 5897
5899 5899 5899 5899 5898 5899 5900 5900 5899 5898 5898 5899 5897 5894 5893 5895 5895 5894 5894 5893 5893 5891 5892 5891 5894 5894 5893 5898 5899 5899 5901 5902 5902 5902 5903 5903 5904 5906 5905 5904 5903 5903 5901 5900 5900 5900 5900 5899 5898
5900 5901 5902 5901 5900 5901 5900 5899 5900 5900 5899 5899 5899 5896 5895 5896 5895 5895 5894 5894 5893 5891 5890 5891 5893 5896 5897 5898 5899 5900 5901 5901 5902 5902 5902 5903 5905 5907 5906 5905 5904 5904 5903 5902 5902 5902 5901 5900 5900
5902 5901 5902 5902 5902 5901 5901 5900 5901 5900 5900 5899 5900 5897 5895 5896 5896 5895 5895 5894 5893 5892 5890 5892 5894 5894 5896 5898 5899 5900 5900 5901 5903 5903 5902 5904 5905 5906 5906 5905 5905 5905 5905 5905 5905 5903 5902 5901 5902
5903 5902 5902 5901 5901 5901 5901 5902 5903 5902 5901 5898 5898 5898 5895 5896 5896 5895 5895 5894 5894 5892 5891 5893 5895 5896 5898 5899 5899 5900 5900 5900 5902 5901 5901 5904 5906 5906 5907 5907 5908 5907 5907 5907 5907 5906 5904 5903 5902
5902 5902 5902 5901 5900 5899 5898 5899 5899 5900 5900 5897 5897 5896 5894 5895 5895 5895 5895 5894 5894 5894 5893 5894 5895 5896 5896 5899 5899 5900 5900 5900 5900 5900 5900 5904 5905 5906 5908 5908 5910 5909 5909 5909 5909 5906 5906 5906 5906
5900 5901 5903 5902 5900 5899 5898 5898 5898 5899 5898 5896 5896 5896 5894 5895 5895 5895 5895 5895 5894 5894 5894 5895 5895 5896 5895 5899 5900 5901 5902 5901 5903 5901 5902 5903 5905 5907 5909 5910 5910 5911 5912 5911 5910 5908 5909 5909 5908
5899 5900 5901 5901 5900 5899 5898 5897 5896 5896 5896 5896 5896 5895 5895 5895 5895 5895 5894 5895 5895 5895 5894 5896 5896 5897 5896 5898 5901 5902 5902 5903 5904 5903 5905 5905 5906 5909 5910 5912 5911 5911 5913 5911 5907 5912 5912 5912 5912
5899 5899 5900 5900 5900 5899 5898 5897 5895 5894 5895 5898 5896 5894 5895 5895 5895 5896 5894 5894 5895 5895 5894 5896 5896 5897 5899 5900 5900 5901 5901 5903 5903 5903 5904 5905 5908 5910 5911 5913 5912 5913 5913 5905 5909 5915 5914 5915 5914
5899 5900 5900 5899 5900 5900 5899 5897 5895 5895 5895 5896 5896 5894 5894 5895 5895 5895 5895 5894 5894 5894 5894 5895 5895 5898 5899 5900 5900 5901 5901 5902 5903 5904 5904 5906 5909 5912 5913 5914 5913 5915 5916 5916 5915 5917 5916 5917 5916
5897 5898 5899 5898 5898 5898 5897 5897 5896 5896 5895 5895 5895 5895 5893 5894 5894 5895 5895 5895 5893 5893 5894 5894 5895 5896 5899 5900 5899 5901 5902 5902 5902 5903 5905 5905 5909 5913 5914 5915 5916 5918 5918 5918 5917 5918 5917 5919 5920
5896 5898 5898 5896 5896 5897 5896 5896 5896 5896 5894 5894 5894 5893 5892 5893 5894 5894 5895 5894 5893 5892 5893 5894 5894 5896 5899 5899 5900 5901 5901 5902 5902 5902 5903 5905 5909 5913 5915 5917 5919 5918 5919 5918 5919 5920 5921 5922 5922
5898 5897 5897 5896 5896 5895 5895 5894 5894 5895 5894 5894 5894 5894 5892 5892 5893 5894 5895 5894 5893 5892 5892 5893 5894 5896 5898 5899 5899 5900 5900 5902 5903 5903 5904 5906 5910 5913 5915 5919 5919 5922 5920 5920 5921 5922 5923 5923 5924
5898 5897 5897 5897 5896 5895 5894 5895 5894 5894 5894 5894 5893 5893 5892 5892 5891 5893 5893 5893 5892 5892 5893 5893 5894 5896 5897 5898 5898 5900 5901 5901 5902 5905 5905 5906 5909 5912 5916 5919 5920 5922 5921 5921 5922 5923 5924 5925 5926
5897 5897 5898 5898 5896 5895 5894 5893 5892 5892 5893 5893 5893 5892 5892 5891 5891 5892 5892 5892 5892 5892 5893 5893 5893 5894 5895 5897 5898 5899 5900 5901 5901 5905 5906 5907 5910 5913 5917 5919 5920 5920 5922 5923 5923 5924 5925 5927 5928
5899 5898 5897 5897 5896 5895 5893 5892 5892 5891 5891 5893 5892 5891 5890 5890 5890 5890 5892 5892 5892 5892 5892 5892 5892 5893 5895 5896 5897 5898 5899 5900 5900 5903 5905 5908 5910 5912 5916 5919 5920 5922 5923 5923 5924 5924 5927 5928 5930
5897 5897 5896 5896 5896 5894 5893 5891 5890 5891 5891 5892 5891 5890 5889 5888 5888 5889 5890 5891 5892 5891 5891 5890 5891 5893 5894 5895 5896 5897 5899 5899 5901 5903 5906 5907 5909 5912 5915 5918 5920 5922 5923 5924 5924 5923 5926 5929 5932
5896 5896 5895 5896 5896 5895 5893 5891 5890 5890 5891 5890 5890 5890 5889 5888 5886 5886 5888 5889 5890 5890 5890 5890 5889 5891 5892 5894 5895 5897 5898 5899 5900 5903 5905 5907 5908 5910 5912 5916 5918 5921 5922 5924 5925 5924 5926 5928 5931
5895 5895 5895 5895 5895 5894 5892 5891 5891 5891 5890 5889 5888 5888 5887 5887 5886 5885 5885 5886 5887 5888 5888 5888 5889 5888 5889 5892 5894 5895 5897 5899 5901 5902 5904 5906 5907 5908 5911 5914 5916 5920 5921 5924 5926 5925 5927 5929 5929
5894 5893 5893 5894 5893 5893 5893 5891 5890 5891 5890 5888 5886 5885 5885 5884 5883 5883 5883 5884 5885 5885 5887 5887 5886 5887 5887 5889 5893 5894 5895 5897 5898 5899 5902 5904 5905 5907 5909 5911 5914 5918 5920 5922 5924 5925 5928 5930 5930
5892 5891 5892 5892 5892 5891 5891 5892 5891 5890 5889 5887 5887 5886 5884 5883 5882 5881 5881 5882 5883 5883 5884 5885 5885 5886 5886 5887 5891 5892 5894 5895 5896 5897 5899 5901 5903 5905 5907 5908 5911 5915 5918 5921 5923 5925 5927 5930 5931
5891 5890 5890 5889 5889 5890 5889 5889 5890 5889 5888 5887 5886 5884 5882 5881 5880 5879 5879 5881 5881 5880 5880 5882 5884 5884 5885 5885 5888 5891 5893 5894 5895 5896 5897 5899 5901 5903 5904 5906 5908 5911 5915 5919 5921 5924 5925 5928 5929
5889 5888 5888 5887 5886 5886 5884 5887 5888 5888 5887 5886 5885 5883 5882 5879 5878 5877 5876 5877 5878 5878 5877 5878 5881 5882 5883 5884 5886 5889 5890 5892 5894 5894 5895 5896 5898 5900 5902 5904 5905 5908 5911 5915 5918 5920 5922 5924 5926
5886 5885 5885 5886 5884 5883 5882 5884 5887 5886 5885 5886 5885 5883 5881 5879 5878 5876 5875 5873 5875 5876 5876 5877 5879 5880 5881 5882 5883 5886 5888 5889 5892 5893 5894 5896 5897 5898 5899 5901 5903 5905 5907 5911 5914 5916 5918 5921 5922
5882 5882 5881 5880 5881 5880 5879 5881 5885 5882 5884 5884 5883 5881 5880 5878 5876 5874 5872 5871 5871 5873 5874 5875 5877 5878 5879 5880 5881 5883 5885 5885 5888 5891 5892 5893 5894 5896 5898 5900 5903 5904 5906 5908 5910 5912 5915 5918 5921
5879 5879 5878 5877 5877 5877 5877 5878 5880 5881 5881 5880 5880 5880 5878 5876 5875 5874 5870 5869 5870 5871 5873 5874 5875 5875 5877 5878 5879 5880 5881 5883 5884 5887 5889 5890 5891 5894 5896 5898 5901 5903 5905 5906 5908 5910 5912 5915 5918
5876 5877 5876 5874 5873 5874 5875 5875 5875 5876 5877 5877 5877 5878 5877 5876 5875 5873 5871 5869 5869 5869 5871 5873 5873 5873 5873 5875 5876 5877 5878 5880 5882 5884 5886 5888 5889 5891 5894 5896 5898 5901 5902 5905 5907 5908 5909 5910 5912
5872 5871 5871 5871 5870 5868 5870 5873 5873 5873 5872 5873 5874 5874 5875 5874 5873 5873 5871 5869 5867 5866 5866 5869 5870 5870 5869 5870 5872 5873 5874 5876 5879 5880 5882 5884 5887 5889 5891 5893 5896 5898 5900 5902 5902 5904 5905 5907 5908
5867 5864 5866 5865 5865 5864 5863 5866 5867 5867 5868 5868 5870 5871 5870 5870 5871 5870 5870 5867 5865 5863 5863 5864 5867 5866 5864 5867 5868 5870 5871 5873 5875 5875 5878 5880 5883 5886 5888 5890 5893 5895 5898 5899 5898 5899 5901 5902 5904